{"data":{"norad_id":67497,"intl_designator":"2026-012E","name":"STARLINK-36555","alt_names":[],"object_type":"PAYLOAD","status":"ACTIVE","operator":null,"country":"US","launch_date":"2026-01-18","launch_site_code":"AFETR","launch_vehicle":null,"mission":null,"orbit_class":"UNKNOWN","rcs_meters":null,"size_class":null,"mass_kg":null,"dimensions":null,"purposes":["comms"],"wikipedia_slug":null,"has_3d_model":false,"image_url":null,"decayed_at":null,"tle_current":{"epoch":"2026-05-24T16:43:35.594400Z","epoch_age_seconds":111766,"freshness":"FRESH","line1":"1 67497U 26012E   26144.69693975  .00011613  00000+0  43078-3 0  9991","line2":"2 67497  42.9994 245.3794 0001544 262.8751  97.1925 15.27585598 19380","mean_motion":15.27585598,"eccentricity":0.0001544,"inclination_deg":42.9994,"raan_deg":245.3794,"arg_perigee_deg":262.8751,"mean_anomaly_deg":97.1925,"bstar":0.00043078,"rev_number":1938,"period_min":94.266403263118,"perigee_km":481.97296911985,"apogee_km":484.09169821009,"semimajor_km":6861.169333665,"source":"CELESTRAK","updated_at":"2026-05-25T13:38:21.566987Z"}}}